{"data":{"norad_id":58703,"epoch":"2026-05-25T04:16:14.973312Z","epoch_age_seconds":49840,"freshness":"FRESH","line1":"1 58703U 24004D   26145.17795108  .00005059  00000+0  19524-3 0  9991","line2":"2 58703  97.4667 331.3487 0005637  79.7787 280.4087 15.26733494132266","mean_motion":15.26733494,"eccentricity":0.0005637,"inclination_deg":97.4667,"raan_deg":331.3487,"arg_perigee_deg":79.7787,"mean_anomaly_deg":280.4087,"bstar":0.00019524,"rev_number":13226,"period_min":94.319015444355,"perigee_km":481.71593053209,"apogee_km":489.45409072687,"semimajor_km":6863.7220106295,"source":"CELESTRAK","updated_at":"2026-05-25T13:38:12.260851Z"}}